EcAMSat (43019 NORAD) Tracking and Keplerian Element Data

This shows tracking and keplerian element data for the satellite.

Feedback or suggestion? Click here.




ElementValue
Catalog43019
NameEcAMSat
Epoch Orbit12801
Epoch Day228.92270014
Epoch Year2018
RAAN71.7131
Inclination51.6399
Eccentricity0.0005246
Argument of Perigee46.5139
Mean Anonmoly313.6289
Mean Motion15.57603197
Decay Rate5.107E-05
L11 43019U 98067NG 18228.92270014 .00005107 00000-0 74461-4 0 9992
L22 43019 051.6399 071.7131 0005246 046.5139 313.6289 15.57603197128015

Live tracking and technical data element details for EcAMSat (NORAD 43019). EcAMSat can be tracked NOW for your location showing map with azimuth and elevation plus other details from your city location.

Track the satellite on the map from your city or location and see movement details for azimuth, elevation, latitude, longitude, range, height, and movement on the map or in text.







IsCatalogInMostPopularTable: catalog: 43019, numindb: 140
Update: records affected: 1



GetName: 43019 EcAMSat

Hit Count: updated at: Fri, 17 Aug 2018 13:20:19 GMT